Home   Weather   Colorado Springs   Past weeks

Flag for USA Past Weather in Colorado Springs, Colorado, USA — Yesterday and Last 2 Weeks

Now
38 °F

Mostly cloudy.


Feels Like: 30 °F
Forecast: 31 / 51 °F
Wind: 14 mph from Northwest

Location: City Of Colorado Springs Municipal Airport

Current Time: Apr 25, 2017 at 8:42:37 pm

Latest Report: Apr 25, 2017 at 7:54 pm


Visibility: 10 mi

Pressure: 29.68 "Hg (23.67 "Hg at 1831m altitude)

Humidity: 90%

Dew Point: 35 °F

Location of Colorado SpringsLocation

Past Weather in Colorado Springs — Graph

°F

Colorado Springs Temperature Yesterday

Maximum temperature yesterday: 72 °F (at 1:42 pm)
Minimum temperature yesterday: 49 °F (at 4:54 am)
Average temperature yesterday: 60 °F

High & Low Weather Summary for the Past Weeks

 TemperatureHumidityPressure
High80 °F (Apr 14, 3:54 pm)100% (Apr 17, 3:29 am)30.34 "Hg (Apr 17, 3:29 am)
Low30 °F (Apr 11, 3:54 am)4% (Apr 14, 4:54 pm)29.33 "Hg (Apr 24, 11:54 pm)
Average54 °F49%29.89 "Hg
* Reported Apr 10 6:54 pm — Apr 25 6:54 pm, Colorado Springs, Weather by CustomWeather, © 2017

Note: Actual official high and low records may vary slightly from our data, if they occured in-between our weather recording intervals... More about our weather records

Advertising

Colorado Springs Weather History for the Previous 24 Hours

Scroll right to see more
 ConditionsComfort  
Time TempWeatherWind HumidityBarometerVisibility
6:54 pm
Tue, Apr 25
39 °FLight rain. Fog.17 mph89%29.65 "Hg3 mi
5:54 pm43 °FLight rain. Mostly cloudy.6 mph79%29.60 "Hg10 mi
5:25 pm42 °FLight rain. Cloudy.6 mph82%29.65 "Hg8 mi
4:54 pm41 °FLight rain. Fog.No wind89%29.59 "Hg4 mi
4:40 pm41 °FLight rain. Fog.3 mph86%29.64 "Hg4 mi
3:54 pm42 °FLight rain. Overcast.3 mph76%29.59 "Hg5 mi
3:38 pm43 °FLight rain. Overcast.10 mph76%29.63 "Hg7 mi
3:13 pm41 °FThunderstorms. Low clouds.15 mph82%29.62 "Hg2 mi
3:07 pm41 °FLight rain. Low clouds.21 mph80%29.62 "Hg2 mi
2:12 pm47 °FMostly cloudy.14 mph66%29.61 "Hg10 mi
1:54 pm48 °FBroken clouds.10 mph74%29.51 "Hg10 mi
12:54 pm46 °FLight rain. Broken clouds.16 mph73%29.50 "Hg9 mi
12:22 pm51 °FThunderstorms. Broken clouds.3 mph39%29.60 "Hg10 mi
11:54 am53 °FBroken clouds.10 mph43%29.46 "Hg10 mi
10:54 am54 °FScattered clouds.10 mph47%29.46 "Hg10 mi
9:54 am51 °FScattered clouds.9 mph46%29.45 "Hg10 mi
8:54 am47 °FPartly sunny.12 mph56%29.46 "Hg10 mi
7:54 am48 °FPartly sunny.10 mph44%29.45 "Hg10 mi
6:54 am50 °FPartly sunny.14 mph29%29.39 "Hg10 mi
5:54 am48 °FPassing clouds.14 mph34%29.37 "Hg10 mi
4:54 am47 °FPassing clouds.9 mph44%29.39 "Hg10 mi
3:54 am44 °FPassing clouds.22 mph76%29.43 "Hg10 mi
2:54 am44 °FPassing clouds.21 mph76%29.40 "Hg10 mi
1:54 am46 °FPassing clouds.14 mph68%29.37 "Hg10 mi
12:54 am49 °FPassing clouds.3 mph61%29.36 "Hg10 mi
11:54 pm
Mon, Apr 24
52 °FPartly cloudy.10 mph55%29.33 "Hg10 mi
10:54 pm53 °FPassing clouds.12 mph52%29.36 "Hg10 mi
9:54 pm56 °FMostly cloudy.12 mph49%29.39 "Hg10 mi
8:54 pm57 °FMostly cloudy.7 mph47%29.40 "Hg10 mi
Weather by CustomWeather, © 2017

See weather overviewHow to use our weather pages